[[{"header":{"parameterUnit":"m.s-1","parameterCategory":1,"la1":30.2991,"la2":30.254,"lo1":-89.0895,"lo2":-89.0444,"dx":0.0017,"dy":0.0017,"nx":28,"ny":28,"refTime":"2022-11-30T15:00:00:Z","depth":0,"parameterNumber":2,"parameterNumberName":"U-component_of_WINDS"},"data":[0,0,0,0,0,0,0,0,0,0,0,0,0,0,0,0,0,0,0,0,0,0,0,0,0,0,0,0,0,0,0,0,0,0,0,0,0,0,0,0,0,0,0,0,0,0,0,0,0,0,0,0,0,0,0,0,0,0,-2.8333,-2.8334,0,-2.8404,-2.8404,-2.8405,-2.8328,-2.8325,-2.8322,-2.8319,-2.8393,-2.8398,-2.8402,0,0,0,0,0,0,0,0,0,0,0,0,0,-2.8132,-2.8136,-2.8333,-2.8334,-2.8335,-2.8403,-2.8404,-2.8405,-2.8328,-2.8325,-2.8321,-2.8318,-2.8391,-2.8397,-2.8403,0,0,0,0,0,0,0,0,0,0,0,0,0,-2.8213,-2.8138,-2.8333,-2.8305,-2.8303,-2.8403,-2.8404,-2.8406,-2.8329,-2.8325,-2.832,-2.8316,-2.839,-2.8396,-2.8403,-2.8536,0,0,-2.8425,-2.8428,0,0,0,0,0,0,0,0,-2.8209,-2.822,-2.8308,-2.8307,-2.8305,-2.8352,-2.8361,-2.8449,-2.833,-2.8319,-2.8319,-2.8314,-2.8383,-2.839,-2.8413,-2.8539,-2.8542,-2.8426,-2.843,-2.8433,-2.8435,0,0,0,0,0,0,0,-2.8203,-2.8217,-2.8361,-2.8309,-2.8308,-2.8289,-2.8295,-2.8377,-2.8375,-2.832,-2.8314,-2.8324,-2.8381,-2.8407,-2.8415,-2.8543,-2.8425,-2.8432,-2.8436,-2.8439,-2.878,-2.8785,0,0,0,0,0,0,-2.82,-2.8213,-2.8359,-2.8363,-2.8245,-2.8296,-2.8303,-2.8342,-2.8374,-2.8375,-2.8327,-2.832,-2.8397,-2.8406,-2.8417,-2.8574,-2.8433,-2.844,-2.8444,-2.8775,-2.8781,-2.8786,0,0,0,0,0,0,-2.8197,-2.8214,-2.8356,-2.8287,-2.8303,-2.8304,-2.8348,-2.8345,-2.8371,-2.838,-2.8379,-2.8354,-2.8394,-2.8407,-2.8506,-2.8576,-2.8443,-2.8449,-2.8769,-2.8777,-2.8784,-2.889,0,0,0,0,0,0,-2.8191,-2.8213,-2.8264,-2.8288,-2.8307,-2.8445,-2.8352,-2.835,-2.8383,-2.8374,-2.8404,-2.8405,-2.8391,-2.8496,-2.8513,-2.8583,-2.8455,-2.8763,-2.8773,-2.8781,-2.888,-2.8899,-2.8916,0,0,0,0,0,-2.8184,-2.8291,-2.8267,-2.8285,-2.837,-2.8449,-2.846,-2.8441,-2.8389,-2.844,-2.8445,-2.8404,-2.8564,-2.8507,-2.8526,-2.8598,-2.8759,-2.877,-2.8781,-2.8872,-2.8896,-2.8916,0,0,0,0,0,0,-2.8276,-2.8294,-2.8267,-2.8385,-2.8416,-2.8436,-2.8499,-2.8467,-2.8514,-2.8504,-2.8479,-2.8486,-2.8592,-2.8604,-2.854,-2.8727,-2.8653,-2.8668,-2.8716,-2.8739,-2.8757,-2.8753,-2.8461,0,0,0,0,0,-2.831,-2.8372,-2.8384,-2.8487,-2.8504,-2.8499,-2.8533,-2.8515,-2.8547,-2.856,-2.8572,-2.8605,-2.8662,-2.8701,-2.8754,-2.888,-2.8886,-2.8939,-2.8957,-2.8972,-2.8986,-2.9054,-2.9078,-2.8822,-2.8822,-2.8822,0,0,-2.8381,-2.8398,-2.8439,-2.8506,-2.8528,-2.8593,-2.8511,-2.8583,-2.8632,-2.8571,-2.8666,-2.8676,-2.871,-2.8823,-2.8874,-2.8837,-2.9058,-2.8986,-2.8998,-2.9004,-2.9068,-2.9092,-2.9113,-2.8829,-2.8828,-2.8827,0,0,-2.8544,-2.8563,-2.8651,-2.8674,-2.8708,-2.8703,-2.8724,-2.8749,-2.8753,-2.8847,-2.8803,-2.8859,-2.8959,-2.8985,-2.9011,-2.9182,-2.9146,-2.9199,-2.9296,-2.9362,-2.9382,-2.94,-2.9462,-2.9484,-2.9213,-2.9213,-2.9213,0,-2.8628,-2.8725,-2.87,-2.8776,-2.8807,-2.8753,-2.8842,-2.8866,-2.8915,-2.8938,-2.8895,-2.9018,-2.9037,-2.9156,-2.9198,-2.922,-2.9244,-2.9197,-2.9381,-2.9398,-2.9415,-2.9473,-2.9497,-2.922,-2.9219,-2.9218,-2.9218,0,-2.8827,-2.8894,-2.8961,-2.901,-2.9048,-2.913,-2.9118,-2.9159,-2.9138,-2.9138,-2.9234,-2.9255,-2.9311,-2.9337,-2.9318,-2.9454,-2.943,-2.9384,-2.931,-2.9446,-2.9501,-2.9523,-2.9229,-2.9226,-2.9225,-2.9223,0,0,-2.9053,-2.9085,-2.9111,-2.9132,-2.9164,-2.9216,-2.9294,-2.9349,-2.9385,-2.942,-2.9486,-2.957,-2.9528,-2.9558,-2.954,-2.9598,-2.9733,-2.9546,-2.9546,-2.9581,-2.9884,-2.992,-2.9946,-2.9708,-2.9712,-2.9715,-2.9882,0,-2.9218,-2.9355,-2.9335,-2.9467,-2.9529,-2.9477,-2.9546,-2.9573,-2.9574,-2.9627,-2.9628,-2.9689,-2.9628,-2.9646,-2.97,-2.9705,-2.9794,-2.9692,-2.977,-2.9773,-2.9766,-2.9974,-3.0013,-3.0169,-2.9903,-2.9906,-2.9909,0,-2.943,-2.9472,-2.9611,-2.9632,-2.9657,-2.9719,-2.9767,-2.9817,-2.9847,-2.9843,-2.9876,-2.9847,-2.9926,-2.9847,-2.9955,-2.9887,-2.9917,-2.9924,-2.9929,-2.9938,-2.9851,-2.9991,-3.0218,-3.0243,-2.9942,-2.994,-2.9937,0,-2.9583,-2.9674,-2.9768,-2.9788,-2.9815,-2.986,-2.9873,-2.9897,-2.9931,-2.9972,-2.9994,-3.0044,-3.0072,-3.0111,-3.0096,-3.0041,-3.0208,-3.0128,-3.0208,-3.0209,-3.0248,-3.0247,-3.0486,-3.0264,-3.0264,-3.0263,-3.0263,0,-2.9771,-2.9858,-2.9837,-2.9896,-2.9992,-2.9966,-3.0062,-3.0069,-3.009,-3.0149,-3.0107,-3.0163,-3.0139,-3.0193,-3.0182,-3.0274,-3.0286,-3.0286,-3.0283,-3.0291,-3.0292,-3.0313,-3.0302,-3.027,-3.0268,-3.0267,-3.0266,0,-2.9959,-2.9949,-3.0049,-3.0065,-3.0071,-3.0141,-3.0155,-3.021,-3.0206,-3.0281,-3.0298,-3.0293,-3.0355,-3.0343,-3.0411,-3.0403,-3.0519,-3.05,-3.0509,-3.0506,-3.0587,-3.058,-3.085,-3.0885,-3.0639,-3.0641,-3.0643,0,-3.0081,-3.0147,-3.017,-3.0206,-3.0222,-3.0281,-3.0314,-3.0291,-3.0328,-3.0364,-3.0415,-3.0472,-3.0518,-3.0618,-3.0621,-3.0673,-3.0657,-3.0748,-3.0664,-3.0671,-3.066,-3.0657,-3.0664,-3.0765,-3.0768,-3.077,-3.0772,0,-3.0299,-3.029,-3.034,-3.0388,-3.0429,-3.0466,-3.0499,-3.0531,-3.051,-3.0553,-3.0615,-3.065,-3.0719,-3.0777,-3.0824,-3.0837,-3.0802,-3.0798,-3.0819,-3.083,-3.0833,-3.0834,-3.0556,-3.0792,-3.079,-3.0789,-3.0788,-3.0787,-3.0459,-3.0515,-3.0539,-3.0596,-3.0618,-3.0649,-3.0701,-3.0704,-3.0755,-3.0809,-3.0791,-3.0862,-3.0888,-3.0948,-3.0966,-3.1021,-3.0987,-3.1018,-3.1027,-3.1035,-3.1046,-3.0822,-3.103,-3.1029,-3.1028,-3.1028,-3.1027,0,-3.0676,-3.0688,-3.0741,-3.0787,-3.0832,-3.0792,-3.0826,-3.0866,-3.0929,-3.0956,-3.1,-3.1071,-3.1126,-3.1133,-3.1185,-3.1228,-3.1213,-3.1242,-3.124,-3.1244,-3.1072,-3.1049,-3.1253,-3.1253,-3.1253,-3.1253,-3.1253,-3.1253,-3.0794,-3.0887,-3.088,-3.0983,-3.0994,-3.1063,-3.1086,-3.1114,-3.1135,-3.1217,-3.1262,-3.1265,-3.1283,-3.1336,-3.1385,-3.1385,-3.1407,-3.1443,-3.1438,-3.1278,-3.1256,-3.1235,-3.1213,-3.1448,-3.1448,-3.1605,-3.1606,-3.1607]},{"header":{"parameterUnit":"m.s-1","parameterCategory":1,"la1":30.2991,"la2":30.254,"lo1":-89.0895,"lo2":-89.0444,"dx":0.0017,"dy":0.0017,"nx":28,"ny":28,"refTime":"2022-11-30T15:00:00:Z","depth":0,"parameterNumber":3,"parameterNumberName":"V-component_of_WINDS"},"data":[0,0,0,0,0,0,0,0,0,0,0,0,0,0,0,0,0,0,0,0,0,0,0,0,0,0,0,0,0,0,0,0,0,0,0,0,0,0,0,0,0,0,0,0,0,0,0,0,0,0,0,0,0,0,0,0,0,0,-7.7277,-7.7278,0,-7.7407,-7.7408,-7.741,-7.7314,-7.731,-7.7306,-7.7302,-7.7429,-7.7436,-7.7443,0,0,0,0,0,0,0,0,0,0,0,0,0,-7.6939,-7.6946,-7.7277,-7.7278,-7.728,-7.7407,-7.7408,-7.741,-7.7315,-7.731,-7.7304,-7.73,-7.7427,-7.7435,-7.7444,0,0,0,0,0,0,0,0,0,0,0,0,0,-7.7079,-7.6948,-7.7276,-7.7248,-7.7246,-7.7406,-7.7408,-7.7411,-7.7316,-7.7309,-7.7303,-7.7297,-7.7424,-7.7434,-7.7445,-7.7638,0,0,-7.7479,-7.7483,0,0,0,0,0,0,0,0,-7.7071,-7.7091,-7.725,-7.725,-7.7249,-7.7338,-7.7336,-7.7487,-7.7317,-7.7289,-7.7301,-7.7294,-7.7403,-7.7416,-7.7454,-7.7644,-7.765,-7.748,-7.7486,-7.7491,-7.7494,0,0,0,0,0,0,0,-7.7061,-7.7085,-7.7328,-7.7253,-7.7252,-7.7226,-7.7239,-7.7364,-7.738,-7.7291,-7.7285,-7.7302,-7.7402,-7.7443,-7.7456,-7.7652,-7.7479,-7.7489,-7.7496,-7.75,-7.8005,-7.8012,0,0,0,0,0,0,-7.7055,-7.7078,-7.7324,-7.7332,-7.7143,-7.7237,-7.7252,-7.7316,-7.7378,-7.7382,-7.7307,-7.7297,-7.7428,-7.7443,-7.746,-7.7689,-7.7491,-7.7501,-7.7507,-7.7998,-7.8007,-7.8014,0,0,0,0,0,0,-7.7048,-7.7078,-7.7318,-7.7203,-7.7232,-7.725,-7.7322,-7.7321,-7.7363,-7.739,-7.7392,-7.7347,-7.7423,-7.7445,-7.7595,-7.7692,-7.7506,-7.7516,-7.799,-7.8001,-7.801,-7.8151,0,0,0,0,0,0,-7.7039,-7.7076,-7.7152,-7.7206,-7.7238,-7.7454,-7.7328,-7.7328,-7.7383,-7.7371,-7.7428,-7.7431,-7.742,-7.7579,-7.7606,-7.7704,-7.7524,-7.7981,-7.7995,-7.8007,-7.8137,-7.8164,-7.8188,0,0,0,0,0,-7.7028,-7.7185,-7.7156,-7.7186,-7.7333,-7.746,-7.7478,-7.7463,-7.7391,-7.7466,-7.7483,-7.743,-7.7677,-7.7595,-7.7624,-7.7728,-7.7975,-7.7991,-7.8006,-7.8126,-7.8159,-7.8187,0,0,0,0,0,0,-7.7141,-7.7192,-7.716,-7.734,-7.7397,-7.7443,-7.7537,-7.7499,-7.7575,-7.7561,-7.7537,-7.7551,-7.7708,-7.7733,-7.764,-7.7917,-7.7814,-7.7836,-7.7896,-7.7927,-7.7952,-7.7943,-7.7534,0,0,0,0,0,-7.7187,-7.7287,-7.7325,-7.7481,-7.7511,-7.752,-7.7574,-7.7558,-7.7614,-7.7637,-7.7665,-7.772,-7.781,-7.787,-7.7954,-7.814,-7.815,-7.8225,-7.825,-7.8271,-7.829,-7.8388,-7.8422,-7.8065,-7.8065,-7.8064,0,0,-7.7283,-7.7323,-7.7388,-7.7505,-7.7546,-7.7649,-7.754,-7.7653,-7.7728,-7.7653,-7.7797,-7.782,-7.7879,-7.8048,-7.8124,-7.8073,-7.8391,-7.829,-7.8307,-7.8315,-7.8408,-7.8442,-7.8472,-7.8075,-7.8073,-7.8072,0,0,-7.751,-7.7552,-7.7685,-7.7729,-7.7794,-7.7799,-7.7831,-7.7883,-7.7896,-7.804,-7.7986,-7.8073,-7.8229,-7.8274,-7.8317,-7.856,-7.8513,-7.8587,-7.8719,-7.8815,-7.8843,-7.8868,-7.8954,-7.8985,-7.8606,-7.8607,-7.8607,0,-7.7621,-7.7775,-7.7758,-7.7876,-7.7927,-7.7866,-7.7999,-7.8042,-7.8131,-7.8167,-7.8109,-7.8303,-7.8339,-7.8517,-7.8576,-7.8613,-7.8647,-7.8581,-7.8841,-7.8866,-7.8888,-7.897,-7.9002,-7.8615,-7.8614,-7.8613,-7.8613,0,-7.7908,-7.8015,-7.8115,-7.8204,-7.8267,-7.8392,-7.8391,-7.8456,-7.8434,-7.8444,-7.859,-7.8631,-7.8722,-7.8763,-7.8742,-7.8937,-7.8904,-7.8844,-7.8741,-7.8931,-7.9007,-7.9039,-7.8628,-7.8625,-7.8622,-7.862,0,0,-7.8211,-7.8288,-7.8325,-7.8364,-7.8431,-7.8512,-7.8633,-7.8724,-7.878,-7.8842,-7.8942,-7.9075,-7.902,-7.9068,-7.9051,-7.9136,-7.9324,-7.9065,-7.9066,-7.9112,-7.9541,-7.9585,-7.9622,-7.9294,-7.93,-7.9304,-7.9535,0,-7.8441,-7.8655,-7.8642,-7.8841,-7.8939,-7.8881,-7.8986,-7.9037,-7.9049,-7.9132,-7.9143,-7.9238,-7.9159,-7.9188,-7.9269,-7.9285,-7.941,-7.9267,-7.9384,-7.9389,-7.9372,-7.9662,-7.971,-7.9926,-7.9565,-7.957,-7.9574,0,-7.8739,-7.8814,-7.9024,-7.9075,-7.9115,-7.921,-7.9291,-7.9372,-7.9427,-7.943,-7.9484,-7.9453,-7.9572,-7.9466,-7.9629,-7.9532,-7.9579,-7.9593,-7.9601,-7.9611,-7.9493,-7.9679,-7.9995,-8.0027,-7.9621,-7.9617,-7.9613,0,-7.8939,-7.9091,-7.9236,-7.9272,-7.9335,-7.9402,-7.9431,-7.9481,-7.9535,-7.9605,-7.964,-7.9723,-7.9768,-7.9831,-7.9822,-7.9746,-7.9988,-7.9881,-7.9991,-7.9992,-8.0045,-8.0042,-8.0372,-8.0076,-8.0075,-8.0075,-8.0074,0,-7.9198,-7.9328,-7.9327,-7.9416,-7.956,-7.9542,-7.9684,-7.9705,-7.9749,-7.9839,-7.9793,-7.9878,-7.9861,-7.9945,-7.9938,-8.0073,-8.0094,-8.0098,-8.0094,-8.0102,-8.0102,-8.0133,-8.0117,-8.0083,-8.0082,-8.008,-8.0078,0,-7.9445,-7.945,-7.9604,-7.9651,-7.9666,-7.977,-7.9808,-7.9892,-7.9899,-8.0014,-8.004,-8.0051,-8.0148,-8.0145,-8.0254,-8.0249,-8.0416,-8.0395,-8.0398,-8.0393,-8.0504,-8.0494,-8.0866,-8.0913,-8.0586,-8.0589,-8.0592,0,-7.9611,-7.971,-7.9768,-7.9826,-7.986,-7.9954,-8.001,-7.9995,-8.0055,-8.0125,-8.0199,-8.0292,-8.0365,-8.0522,-8.0539,-8.0621,-8.0602,-8.0726,-8.0614,-8.0618,-8.0603,-8.0597,-8.0607,-8.0749,-8.0752,-8.0755,-8.0758,0,-7.9903,-7.99,-7.9984,-8.0069,-8.0137,-8.0202,-8.0262,-8.0312,-8.0303,-8.0372,-8.0472,-8.0529,-8.0641,-8.0733,-8.0812,-8.0838,-8.0797,-8.0793,-8.0823,-8.0832,-8.083,-8.0832,-8.0458,-8.0785,-8.0782,-8.078,-8.0778,-8.0777,-8.0114,-8.0199,-8.0253,-8.0347,-8.0391,-8.0448,-8.0528,-8.0546,-8.0629,-8.0721,-8.0706,-8.0817,-8.0867,-8.0969,-8.1004,-8.1088,-8.1044,-8.1087,-8.1098,-8.1109,-8.1121,-8.0816,-8.1102,-8.1102,-8.1101,-8.11,-8.11,0,-8.0403,-8.0435,-8.0522,-8.0608,-8.0682,-8.0637,-8.0701,-8.0765,-8.0863,-8.0915,-8.0988,-8.1101,-8.119,-8.1213,-8.1298,-8.1361,-8.1344,-8.1384,-8.1379,-8.1385,-8.1157,-8.1122,-8.1396,-8.1396,-8.1396,-8.1396,-8.1396,-8.1396,-8.0562,-8.0704,-8.0707,-8.0869,-8.0898,-8.1008,-8.1048,-8.11,-8.114,-8.127,-8.1344,-8.1359,-8.1399,-8.1485,-8.1564,-8.1568,-8.1601,-8.1649,-8.1646,-8.1431,-8.1402,-8.1373,-8.1341,-8.1656,-8.1657,-8.1867,-8.1869,-8.1871]}]]